Time,TemperatureF,DewpointF,PressureIn,WindDirection,WindDirectionDegrees,WindSpeedMPH,WindSpeedGustMPH,Humidity,HourlyPrecipIn,Conditions,Clouds,dailyrainin,SoftwareType,DateUTC
2013-02-27 00:04:00,33.1,32.0,29.86,NNE,22,1.0,-999.0,95,-99.99,,,0.11,weatherlink.com 1.10,2013-02-27 05:04:00,
2013-02-27 00:19:00,33.2,32.0,29.84,NE,40,2.0,-999.0,95,-99.99,,,0.00,weatherlink.com 1.10,2013-02-27 05:19:00,
2013-02-27 00:49:00,33.2,32.0,29.81,NNW,327,0.0,-999.0,96,-99.99,,,0.02,weatherlink.com 1.10,2013-02-27 05:49:00,
2013-02-27 01:19:00,33.3,32.0,29.80,NE,49,5.0,-999.0,96,-99.99,,,0.05,weatherlink.com 1.10,2013-02-27 06:19:00,
2013-02-27 01:35:00,33.3,32.0,29.80,ENE,62,3.0,-999.0,96,-99.99,,,0.06,weatherlink.com 1.10,2013-02-27 06:35:00,
2013-02-27 01:50:00,33.4,32.0,29.80,ENE,76,0.0,-999.0,95,-99.99,,,0.07,weatherlink.com 1.10,2013-02-27 06:50:00,
2013-02-27 02:05:00,33.3,32.0,29.79,NE,39,3.0,-999.0,95,-99.99,,,0.07,weatherlink.com 1.10,2013-02-27 07:05:00,
2013-02-27 02:20:00,33.4,32.0,29.77,NE,46,0.0,-999.0,95,-99.99,,,0.07,weatherlink.com 1.10,2013-02-27 07:20:00,
2013-02-27 02:38:00,33.4,32.0,29.76,ENE,65,3.0,-999.0,95,-99.99,,,0.08,weatherlink.com 1.10,2013-02-27 07:38:00,
2013-02-27 02:50:00,33.4,32.0,29.75,NNE,12,3.0,-999.0,95,-99.99,,,0.09,weatherlink.com 1.10,2013-02-27 07:50:00,
2013-02-27 03:05:00,33.5,32.0,29.74,NE,55,3.0,-999.0,95,-99.99,,,0.09,weatherlink.com 1.10,2013-02-27 08:05:00,
2013-02-27 03:20:00,33.5,32.0,29.73,ENE,69,3.0,-999.0,95,-99.99,,,0.09,weatherlink.com 1.10,2013-02-27 08:20:00,
2013-02-27 03:35:00,33.6,33.0,29.72,NNE,14,3.0,-999.0,96,-99.99,,,0.09,weatherlink.com 1.10,2013-02-27 08:35:00,
2013-02-27 03:50:00,33.6,33.0,29.72,NE,51,2.0,-999.0,96,-99.99,,,0.10,weatherlink.com 1.10,2013-02-27 08:50:00,
2013-02-27 04:05:00,33.7,33.0,29.72,ENE,74,0.0,-999.0,96,-99.99,,,0.10,weatherlink.com 1.10,2013-02-27 09:05:00,
2013-02-27 04:20:00,33.7,33.0,29.71,NE,43,1.0,-999.0,95,-99.99,,,0.11,weatherlink.com 1.10,2013-02-27 09:20:00,
2013-02-27 04:35:00,33.7,33.0,29.70,North,9,2.0,-999.0,95,-99.99,,,0.11,weatherlink.com 1.10,2013-02-27 09:35:00,
2013-02-27 04:50:00,33.7,33.0,29.70,North,9,2.0,-999.0,95,-99.99,,,0.11,weatherlink.com 1.10,2013-02-27 09:50:00,
2013-02-27 05:05:00,33.7,33.0,29.70,North,9,0.0,-999.0,95,-99.99,,,0.11,weatherlink.com 1.10,2013-02-27 10:05:00,
2013-02-27 05:20:00,33.7,33.0,29.69,North,9,0.0,-999.0,95,-99.99,,,0.12,weatherlink.com 1.10,2013-02-27 10:20:00,
2013-02-27 05:35:00,33.6,33.0,29.68,NNE,14,0.0,-999.0,96,-99.99,,,0.13,weatherlink.com 1.10,2013-02-27 10:35:00,
2013-02-27 05:50:00,33.6,33.0,29.68,NNE,20,0.0,-999.0,96,-99.99,,,0.13,weatherlink.com 1.10,2013-02-27 10:50:00,
2013-02-27 06:05:00,33.6,32.0,29.68,NNE,20,1.0,-999.0,95,-99.99,,,0.14,weatherlink.com 1.10,2013-02-27 11:05:00,
2013-02-27 06:20:00,33.5,32.0,29.67,NNE,12,3.0,-999.0,95,-99.99,,,0.14,weatherlink.com 1.10,2013-02-27 11:20:00,
2013-02-27 06:35:00,33.4,32.0,29.67,North,5,2.0,-999.0,95,-99.99,,,0.14,weatherlink.com 1.10,2013-02-27 11:35:00,
2013-02-27 06:50:00,33.3,32.0,29.67,North,5,0.0,-999.0,95,-99.99,,,0.15,weatherlink.com 1.10,2013-02-27 11:50:00,
2013-02-27 07:05:00,33.2,32.0,29.66,North,5,0.0,-999.0,95,-99.99,,,0.15,weatherlink.com 1.10,2013-02-27 12:05:00,
2013-02-27 07:20:00,33.2,32.0,29.66,North,5,2.0,-999.0,95,-99.99,,,0.15,weatherlink.com 1.10,2013-02-27 12:20:00,
2013-02-27 07:35:00,33.1,32.0,29.66,NNE,18,0.0,-999.0,95,-99.99,,,0.17,weatherlink.com 1.10,2013-02-27 12:35:00,
2013-02-27 07:50:00,33.0,32.0,29.66,NNE,17,1.0,-999.0,95,-99.99,,,0.17,weatherlink.com 1.10,2013-02-27 12:50:00,
2013-02-27 08:05:00,33.0,32.0,29.67,NNE,17,0.0,-999.0,96,-99.99,,,0.18,weatherlink.com 1.10,2013-02-27 13:05:00,
2013-02-27 08:20:00,33.0,32.0,29.67,NNE,17,0.0,-999.0,95,-99.99,,,0.19,weatherlink.com 1.10,2013-02-27 13:20:00,
2013-02-27 08:35:00,33.0,32.0,29.67,NNE,17,0.0,-999.0,96,-99.99,,,0.19,weatherlink.com 1.10,2013-02-27 13:35:00,
2013-02-27 08:50:00,33.0,32.0,29.66,North,11,0.0,-999.0,96,-99.99,,,0.20,weatherlink.com 1.10,2013-02-27 13:50:00,
2013-02-27 09:05:00,33.1,32.0,29.66,NNW,348,0.0,-999.0,96,-99.99,,,0.21,weatherlink.com 1.10,2013-02-27 14:05:00,
2013-02-27 09:20:00,33.1,32.0,29.66,North,5,0.0,-999.0,96,-99.99,,,0.21,weatherlink.com 1.10,2013-02-27 14:20:00,
2013-02-27 09:35:00,33.0,32.0,29.66,NNW,338,2.0,-999.0,96,-99.99,,,0.21,weatherlink.com 1.10,2013-02-27 14:35:00,
2013-02-27 09:50:00,33.0,32.0,29.66,NNW,340,1.0,-999.0,96,-99.99,,,0.21,weatherlink.com 1.10,2013-02-27 14:50:00,
2013-02-27 10:05:00,33.2,32.0,29.66,NNE,21,0.0,-999.0,96,-99.99,,,0.22,weatherlink.com 1.10,2013-02-27 15:05:00,
2013-02-27 10:20:00,33.3,32.0,29.66,NNW,346,0.0,-999.0,96,-99.99,,,0.22,weatherlink.com 1.10,2013-02-27 15:20:00,
2013-02-27 10:35:00,33.5,33.0,29.66,NNW,346,0.0,-999.0,96,-99.99,,,0.22,weatherlink.com 1.10,2013-02-27 15:35:00,
2013-02-27 10:50:00,33.5,33.0,29.66,NNW,346,0.0,-999.0,96,-99.99,,,0.23,weatherlink.com 1.10,2013-02-27 15:50:00,
2013-02-27 11:05:00,33.6,33.0,29.65,NNW,346,0.0,-999.0,96,-99.99,,,0.23,weatherlink.com 1.10,2013-02-27 16:05:00,
2013-02-27 11:20:00,33.3,32.0,29.65,NNW,348,2.0,-999.0,96,-99.99,,,0.23,weatherlink.com 1.10,2013-02-27 16:20:00,
2013-02-27 11:35:00,33.4,32.0,29.65,NNW,348,1.0,-999.0,96,-99.99,,,0.24,weatherlink.com 1.10,2013-02-27 16:35:00,
2013-02-27 11:50:00,33.6,33.0,29.64,NNW,348,3.0,-999.0,96,-99.99,,,0.24,weatherlink.com 1.10,2013-02-27 16:50:00,
2013-02-27 12:06:00,34.0,33.0,29.63,North,349,3.0,-999.0,96,-99.99,,,0.25,weatherlink.com 1.10,2013-02-27 17:06:00,
2013-02-27 12:21:00,34.2,33.0,29.63,North,355,2.0,-999.0,96,-99.99,,,0.25,weatherlink.com 1.10,2013-02-27 17:21:00,
2013-02-27 12:36:00,34.4,33.0,29.62,North,5,1.0,-999.0,96,-99.99,,,0.27,weatherlink.com 1.10,2013-02-27 17:36:00,
2013-02-27 12:51:00,34.7,34.0,29.62,North,5,1.0,-999.0,96,-99.99,,,0.28,weatherlink.com 1.10,2013-02-27 17:51:00,
2013-02-27 13:06:00,35.3,34.0,29.61,North,5,0.0,-999.0,96,-99.99,,,0.31,weatherlink.com 1.10,2013-02-27 18:06:00,
2013-02-27 13:21:00,35.6,35.0,29.61,North,5,0.0,-999.0,96,-99.99,,,0.33,weatherlink.com 1.10,2013-02-27 18:21:00,
2013-02-27 13:36:00,35.6,35.0,29.60,North,5,0.0,-999.0,96,-99.99,,,0.35,weatherlink.com 1.10,2013-02-27 18:36:00,
2013-02-27 13:51:00,35.9,35.0,29.60,North,5,0.0,-999.0,96,-99.99,,,0.37,weatherlink.com 1.10,2013-02-27 18:51:00,
2013-02-27 14:06:00,35.9,35.0,29.60,North,5,1.0,-999.0,96,-99.99,,,0.39,weatherlink.com 1.10,2013-02-27 19:06:00,
2013-02-27 14:21:00,35.9,35.0,29.60,North,5,0.0,-999.0,96,-99.99,,,0.41,weatherlink.com 1.10,2013-02-27 19:21:00,
2013-02-27 14:36:00,35.5,35.0,29.60,North,5,0.0,-999.0,96,-99.99,,,0.43,weatherlink.com 1.10,2013-02-27 19:36:00,
2013-02-27 14:51:00,35.4,34.0,29.60,North,5,0.0,-999.0,95,-99.99,,,0.45,weatherlink.com 1.10,2013-02-27 19:51:00,
2013-02-27 15:06:00,35.4,34.0,29.60,North,5,0.0,-999.0,96,-99.99,,,0.47,weatherlink.com 1.10,2013-02-27 20:06:00,
2013-02-27 15:21:00,35.3,34.0,29.60,North,5,0.0,-999.0,96,-99.99,,,0.49,weatherlink.com 1.10,2013-02-27 20:21:00,
2013-02-27 15:36:00,35.6,35.0,29.60,North,5,0.0,-999.0,96,-99.99,,,0.50,weatherlink.com 1.10,2013-02-27 20:36:00,
2013-02-27 15:51:00,35.2,34.0,29.60,North,5,0.0,-999.0,95,-99.99,,,0.51,weatherlink.com 1.10,2013-02-27 20:51:00,
2013-02-27 16:06:00,35.0,34.0,29.60,North,5,0.0,-999.0,95,-99.99,,,0.53,weatherlink.com 1.10,2013-02-27 21:06:00,
2013-02-27 16:21:00,34.8,34.0,29.60,North,5,0.0,-999.0,95,-99.99,,,0.55,weatherlink.com 1.10,2013-02-27 21:21:00,
2013-02-27 16:36:00,34.6,33.0,29.60,North,5,0.0,-999.0,95,-99.99,,,0.56,weatherlink.com 1.10,2013-02-27 21:36:00,
2013-02-27 16:51:00,34.3,33.0,29.60,North,5,0.0,-999.0,95,-99.99,,,0.57,weatherlink.com 1.10,2013-02-27 21:51:00,
2013-02-27 17:06:00,34.3,33.0,29.60,North,5,0.0,-999.0,95,-99.99,,,0.58,weatherlink.com 1.10,2013-02-27 22:06:00,
2013-02-27 17:21:00,34.0,33.0,29.60,North,5,0.0,-999.0,95,-99.99,,,0.58,weatherlink.com 1.10,2013-02-27 22:21:00,
2013-02-27 17:36:00,33.8,33.0,29.60,North,5,0.0,-999.0,95,-99.99,,,0.59,weatherlink.com 1.10,2013-02-27 22:36:00,
2013-02-27 17:51:00,33.8,33.0,29.61,North,5,0.0,-999.0,95,-99.99,,,0.59,weatherlink.com 1.10,2013-02-27 22:51:00,
2013-02-27 18:06:00,33.7,33.0,29.61,North,5,0.0,-999.0,96,-99.99,,,0.60,weatherlink.com 1.10,2013-02-27 23:06:00,
2013-02-27 18:21:00,33.5,32.0,29.61,North,5,0.0,-999.0,95,-99.99,,,0.60,weatherlink.com 1.10,2013-02-27 23:21:00,
2013-02-27 18:36:00,33.5,33.0,29.61,North,5,0.0,-999.0,96,-99.99,,,0.61,weatherlink.com 1.10,2013-02-27 23:36:00,
2013-02-27 18:51:00,33.5,33.0,29.61,North,5,0.0,-999.0,96,-99.99,,,0.61,weatherlink.com 1.10,2013-02-27 23:51:00,
2013-02-27 19:06:00,33.4,32.0,29.60,North,5,0.0,-999.0,96,-99.99,,,0.61,weatherlink.com 1.10,2013-02-28 00:06:00,
2013-02-27 19:21:00,33.2,32.0,29.60,North,5,0.0,-999.0,96,-99.99,,,0.61,weatherlink.com 1.10,2013-02-28 00:21:00,
2013-02-27 19:36:00,33.2,32.0,29.60,North,5,3.0,-999.0,96,-99.99,,,0.61,weatherlink.com 1.10,2013-02-28 00:36:00,
2013-02-27 19:51:00,33.3,32.0,29.60,North,5,0.0,-999.0,96,-99.99,,,0.61,weatherlink.com 1.10,2013-02-28 00:51:00,
2013-02-27 20:06:00,33.4,32.0,29.60,North,355,0.0,-999.0,96,-99.99,,,0.62,weatherlink.com 1.10,2013-02-28 01:06:00,
2013-02-27 20:21:00,33.4,32.0,29.59,NW,317,0.0,-999.0,96,-99.99,,,0.62,weatherlink.com 1.10,2013-02-28 01:21:00,
2013-02-27 20:36:00,33.4,32.0,29.60,NW,316,3.0,-999.0,96,-99.99,,,0.62,weatherlink.com 1.10,2013-02-28 01:36:00,
2013-02-27 20:51:00,33.4,32.0,29.60,WSW,251,0.0,-999.0,96,-99.99,,,0.62,weatherlink.com 1.10,2013-02-28 01:51:00,
2013-02-27 21:06:00,33.4,32.0,29.60,SW,217,0.0,-999.0,96,-99.99,,,0.62,weatherlink.com 1.10,2013-02-28 02:06:00,
2013-02-27 21:21:00,33.4,32.0,29.60,SSW,213,1.0,-999.0,96,-99.99,,,0.63,weatherlink.com 1.10,2013-02-28 02:21:00,
2013-02-27 21:36:00,33.4,32.0,29.60,SW,214,2.0,-999.0,96,-99.99,,,0.63,weatherlink.com 1.10,2013-02-28 02:36:00,
2013-02-27 21:51:00,33.5,33.0,29.60,SSW,194,0.0,-999.0,96,-99.99,,,0.63,weatherlink.com 1.10,2013-02-28 02:51:00,
2013-02-27 22:06:00,33.5,33.0,29.60,SSW,213,0.0,-999.0,96,-99.99,,,0.63,weatherlink.com 1.10,2013-02-28 03:06:00,
2013-02-27 22:21:00,33.5,33.0,29.60,SW,214,1.0,-999.0,96,-99.99,,,0.63,weatherlink.com 1.10,2013-02-28 03:21:00,
2013-02-27 22:36:00,33.3,32.0,29.60,SW,214,0.0,-999.0,96,-99.99,,,0.63,weatherlink.com 1.10,2013-02-28 03:36:00,
2013-02-27 22:51:00,33.2,32.0,29.60,SW,214,0.0,-999.0,96,-99.99,,,0.63,weatherlink.com 1.10,2013-02-28 03:51:00,
2013-02-27 23:06:00,33.2,33.0,29.59,SW,214,2.0,-999.0,97,-99.99,,,0.64,weatherlink.com 1.10,2013-02-28 04:06:00,
2013-02-27 23:22:00,33.3,33.0,29.59,SW,214,1.0,-999.0,97,-99.99,,,0.64,weatherlink.com 1.10,2013-02-28 04:22:00,
2013-02-27 23:36:00,33.4,33.0,29.59,SW,214,1.0,-999.0,97,-99.99,,,0.64,weatherlink.com 1.10,2013-02-28 04:36:00,
2013-02-27 23:51:00,33.6,33.0,29.59,SSW,207,2.0,-999.0,97,-99.99,,,0.64,weatherlink.com 1.10,2013-02-28 04:51:00,